CW3794 Weather Reports


Display with metric or nautical units.
time (UTC)temp
F
wind
direction
speed
MPH
gust
MPH
rain 1hr
in
rain 24hr
in
rain mn
in
humidity
%
barometer
mb
20260906184404 97 296 0.0 0.0 0.00 0.00 0.00 32 1007.9
20260906182904 96 296 0.0 0.0 0.00 0.00 0.00 32 1008.3
20260906182404 96 296 0.0 0.0 0.00 0.00 0.00 32 1008.4
20260906181904 96 296 0.0 0.0 0.00 0.00 0.00 33 1008.4
20260906181405 95 296 0.0 0.0 0.00 0.00 0.00 33 1008.6
20260906180904 95 296 0.0 0.0 0.00 0.00 0.00 33 1008.6
20260906180405 95 296 0.0 0.0 0.00 0.00 0.00 33 1008.6
20260906175904 95 296 0.0 0.0 0.00 0.00 0.00 33 1008.5
20260906175405 95 296 0.0 0.0 0.00 0.00 0.00 34 1008.5
20260906174904 94 296 0.0 0.0 0.00 0.00 0.00 34 1008.6
20260906174405 94 296 0.0 0.0 0.00 0.00 0.00 35 1008.8
20260906173904 95 296 0.0 0.0 0.00 0.00 0.00 34 1008.7
20260906173405 95 296 0.0 0.0 0.00 0.00 0.00 34 1008.8
20260906172904 96 296 0.0 0.0 0.00 0.00 0.00 34 1008.8
20260906172404 95 297 0.0 0.0 0.00 0.00 0.00 35 1008.7
20260906171904 95 297 0.0 0.0 0.00 0.00 0.00 36 1008.9
20260906171404 94 296 0.0 0.0 0.00 0.00 0.00 35 1009.1
20260906170905 94 296 0.0 0.0 0.00 0.00 0.00 36 1009.0
20260906170405 94 296 0.0 0.0 0.00 0.00 0.00 36 1009.0
20260906165904 94 296 0.0 0.0 0.00 0.00 0.00 35 1009.0
20260906165405 94 296 0.0 0.0 0.00 0.00 0.00 36 1009.0
20260906164904 93 296 0.0 0.0 0.00 0.00 0.00 37 1009.0
20260906164404 93 296 0.0 0.0 0.00 0.00 0.00 36 1009.0
20260906163404 92 296 0.0 0.0 0.00 0.00 0.00 37 1009.0
20260906162904 92 296 0.0 0.0 0.00 0.00 0.00 38 1009.1
20260906162404 92 296 0.0 0.0 0.00 0.00 0.00 38 1009.1
20260906161904 91 297 0.0 0.0 0.00 0.00 0.00 39 1009.3
20260906161404 91 296 0.0 0.0 0.00 0.00 0.00 39 1009.3
20260906160905 91 296 0.0 0.0 0.00 0.00 0.00 39 1009.2
20260906160405 90 296 0.0 0.0 0.00 0.00 0.00 39 1009.3
20260906155904 91 297 0.0 0.0 0.00 0.00 0.00 39 1009.3
20260906155404 90 297 0.0 0.0 0.00 0.00 0.00 41 1009.2
20260906154904 91 297 0.0 0.0 0.00 0.00 0.00 40 1009.2
20260906154404 90 296 0.0 0.0 0.00 0.00 0.00 40 1009.2
20260906153904 90 297 0.0 0.0 0.00 0.00 0.00 40 1009.3
20260906153405 89 296 0.0 0.0 0.00 0.00 0.00 41 1009.3
20260906152404 88 297 0.0 0.0 0.00 0.00 0.00 43 1009.4
20260906151405 87 297 0.0 0.0 0.00 0.00 0.00 46 1009.4
20260906150904 86 297 0.0 0.0 0.00 0.00 0.00 46 1009.4
20260906150405 85 297 0.0 0.0 0.00 0.00 0.00 48 1009.4
20260906145904 85 297 0.0 0.0 0.00 0.00 0.00 47 1009.3
20260906145405 85 297 0.0 0.0 0.00 0.00 0.00 48 1009.2
20260906144904 85 297 0.0 0.0 0.00 0.00 0.00 49 1009.2
20260906144404 85 297 0.0 0.0 0.00 0.00 0.00 49 1009.2
20260906143905 85 297 0.0 0.0 0.00 0.00 0.00 47 1009.2
20260906143404 84 296 0.0 0.0 0.00 0.00 0.00 49 1009.2
20260906142904 84 297 0.0 0.0 0.00 0.00 0.00 49 1009.1
20260906142404 83 297 0.0 0.0 0.00 0.00 0.00 49 1009.2
20260906141904 83 297 0.0 0.0 0.00 0.00 0.00 50 1009.2
20260906140904 82 297 0.0 0.0 0.00 0.00 0.00 51 1009.1
20260906140404 82 297 0.0 0.0 0.00 0.00 0.00 51 1009.0
20260906135904 81 297 0.0 0.0 0.00 0.00 0.00 52 1009.0
20260906135404 81 297 0.0 0.0 0.00 0.00 0.00 52 1008.9
20260906134904 81 296 0.0 0.0 0.00 0.00 0.00 53 1008.8
20260906134404 80 297 0.0 0.0 0.00 0.00 0.00 53 1008.7
20260906133405 79 297 0.0 0.0 0.00 0.00 0.00 54 1008.7
20260906132904 79 296 0.0 0.0 0.00 0.00 0.00 55 1008.7
20260906131905 79 297 0.0 0.0 0.00 0.00 0.00 54 1008.7
20260906131404 79 297 0.0 0.0 0.00 0.00 0.00 54 1008.6
20260906130904 78 297 0.0 0.0 0.00 0.00 0.00 54 1008.6
20260906130404 78 296 0.0 0.0 0.00 0.00 0.00 55 1008.5
20260906125905 78 297 0.0 0.0 0.00 0.00 0.00 54 1008.4
20260906125404 78 297 0.0 0.0 0.00 0.00 0.00 54 1008.3
20260906124904 78 297 0.0 0.0 0.00 0.00 0.00 54 1008.3
20260906123904 79 297 0.0 0.0 0.00 0.00 0.00 54 1008.2
20260906123404 79 297 0.0 0.0 0.00 0.00 0.00 54 1008.1
20260906122904 79 297 0.0 0.0 0.00 0.00 0.00 54 1008.2
20260906122404 79 297 0.0 0.0 0.00 0.00 0.00 54 1008.1
20260906121904 79 297 0.0 0.0 0.00 0.00 0.00 54 1008.1
20260906121404 79 297 0.0 0.0 0.00 0.00 0.00 54 1008.2
20260906120904 79 297 0.0 0.0 0.00 0.00 0.00 53 1008.3
20260906120405 80 297 0.0 0.0 0.00 0.00 0.00 52 1008.2
20260906115904 80 297 0.0 0.0 0.00 0.00 0.00 52 1008.2
20260906115404 80 297 0.0 0.0 0.00 0.00 0.00 52 1008.2
20260906114405 80 296 0.0 0.0 0.00 0.00 0.00 52 1008.1
20260906113905 80 296 0.0 0.0 0.00 0.00 0.00 52 1008.1
20260906113404 80 298 0.0 0.0 0.00 0.00 0.00 52 1008.0
20260906112904 80 296 0.0 0.0 0.00 0.00 0.00 51 1008.1
20260906112404 80 297 0.0 0.0 0.00 0.00 0.00 51 1008.1
20260906111904 80 297 0.0 0.0 0.00 0.00 0.00 51 1008.1
20260906111404 80 297 0.0 0.0 0.00 0.00 0.00 51 1008.0
20260906110904 81 297 0.0 0.0 0.00 0.00 0.00 51 1008.0
20260906105904 81 297 0.0 0.0 0.00 0.00 0.00 50 1007.8
20260906105404 81 296 0.0 0.0 0.00 0.00 0.00 50 1007.9
20260906104904 81 297 0.0 0.0 0.00 0.00 0.00 50 1007.9
20260906104405 81 296 0.0 0.0 0.00 0.00 0.00 49 1007.9
20260906103904 81 297 0.0 0.0 0.00 0.00 0.00 49 1007.9
20260906103404 82 296 0.0 0.0 0.00 0.00 0.00 49 1007.8
20260906102404 82 297 0.0 0.0 0.00 0.00 0.00 48 1007.9
20260906101904 82 296 0.0 0.0 0.00 0.00 0.00 48 1007.9
20260906100904 82 298 0.0 0.0 0.00 0.00 0.00 48 1007.8
20260906100404 82 298 0.0 0.0 0.00 0.00 0.00 48 1007.9
20260906095904 82 297 0.0 0.0 0.00 0.00 0.00 48 1008.0
20260906094904 82 296 0.0 0.0 0.00 0.00 0.00 48 1007.9
20260906093904 82 296 0.0 0.0 0.00 0.00 0.00 47 1008.0
20260906093404 83 297 0.0 0.0 0.00 0.00 0.00 47 1007.9
20260906092904 83 297 0.0 0.0 0.00 0.00 0.00 46 1007.8
20260906092404 83 296 0.0 0.0 0.00 0.00 0.00 46 1007.8
20260906091404 83 297 0.0 0.0 0.00 0.00 0.00 46 1007.8
20260906090904 83 297 0.0 0.0 0.00 0.00 0.00 46 1007.8
20260906090405 83 297 0.0 0.0 0.00 0.00 0.00 46 1007.8
20260906085904 83 296 0.0 0.0 0.00 0.00 0.00 45 1007.7
20260906085404 83 297 0.0 0.0 0.00 0.00 0.00 45 1007.8
20260906084904 83 297 0.0 0.0 0.00 0.00 0.00 45 1007.9
20260906084404 83 297 0.0 0.0 0.00 0.00 0.00 45 1007.9
20260906083904 84 297 0.0 0.0 0.00 0.00 0.00 45 1007.9
20260906082904 84 297 0.0 0.0 0.00 0.00 0.00 43 1008.0
20260906081903 84 297 0.0 0.0 0.00 0.00 0.00 44 1008.0
20260906081404 84 297 0.0 0.0 0.00 0.00 0.00 44 1008.1
20260906080905 84 297 0.0 0.0 0.00 0.00 0.00 44 1008.1
20260906080404 84 297 0.0 0.0 0.00 0.00 0.00 43 1008.2
20260906075904 84 297 0.0 0.0 0.00 0.00 0.00 43 1008.4
20260906075404 84 297 0.0 0.0 0.00 0.00 0.00 43 1008.4
20260906074904 84 297 0.0 0.0 0.00 0.00 0.00 43 1008.5
20260906074404 85 297 0.0 0.0 0.00 0.00 0.00 43 1008.4
20260906073404 85 297 0.0 0.0 0.00 0.00 0.00 42 1008.5
20260906072904 85 297 0.0 0.0 0.00 0.00 0.00 42 1008.4
20260906072404 86 297 0.0 0.0 0.00 0.00 0.00 41 1008.4
20260906071904 86 297 0.0 0.0 0.00 0.00 0.00 41 1008.3
20260906070404 87 297 0.0 0.0 0.00 0.00 0.00 40 1008.4
20260906065904 87 297 0.0 0.0 0.00 0.00 0.00 40 1008.5
20260906064904 87 296 0.0 0.0 0.00 0.00 0.00 40 1008.5
20260906064404 87 297 0.0 0.0 0.00 0.00 0.00 39 1008.5
20260906063904 87 297 0.0 0.0 0.00 0.00 0.00 39 1008.5
20260906063403 87 297 0.0 0.0 0.00 0.00 0.00 39 1008.5
20260906062904 87 297 0.0 0.0 0.00 0.00 0.00 39 1008.5
20260906061904 88 297 0.0 0.0 0.00 0.00 0.00 38 1008.4
20260906060904 88 297 0.0 0.0 0.00 0.00 0.00 37 1008.4
20260906060404 89 297 0.0 0.0 0.00 0.00 0.00 37 1008.4
20260906055904 89 297 0.0 0.0 0.00 0.00 0.00 37 1008.5
20260906054904 89 297 0.0 0.0 0.00 0.00 0.00 37 1008.6
20260906054404 89 297 0.0 0.0 0.00 0.00 0.00 37 1008.5
20260906052404 89 297 0.0 0.0 0.00 0.00 0.00 37 1008.6
20260906051904 89 298 0.0 0.0 0.00 0.00 0.00 37 1008.4
20260906050904 90 301 0.0 0.0 0.00 0.00 0.00 37 1008.4
20260906050404 90 300 0.0 0.0 0.00 0.00 0.00 36 1008.5
20260906045904 90 298 0.0 0.0 0.00 0.00 0.00 36 1008.7
20260906044904 90 303 0.0 0.0 0.00 0.00 0.00 36 1008.7
20260906044404 90 298 0.0 0.0 0.00 0.00 0.00 36 1008.7
20260906043404 90 298 0.0 0.0 0.00 0.00 0.00 36 1008.7
20260906042903 90 297 0.0 0.0 0.00 0.00 0.00 36 1008.6
20260906042404 90 298 0.0 0.0 0.00 0.00 0.00 36 1008.7
20260906041904 90 298 0.0 0.0 0.00 0.00 0.00 36 1008.7
20260906041404 90 298 0.0 0.0 0.00 0.00 0.00 36 1008.8
20260906040904 90 297 0.0 0.0 0.00 0.00 0.00 36 1008.9
20260906040404 90 297 0.0 0.0 0.00 0.00 0.00 36 1008.8
20260906035904 90 298 0.0 0.0 0.00 0.00 0.00 36 1008.9
20260906035404 90 298 0.0 0.0 0.00 0.00 0.00 35 1008.8
20260906034904 91 297 0.0 0.0 0.00 0.00 0.00 35 1008.7
20260906034404 91 298 0.0 0.0 0.00 0.00 0.00 35 1008.6
20260906033904 91 299 0.0 0.0 0.00 0.00 0.00 34 1008.6
20260906033403 92 297 0.0 0.0 0.00 0.00 0.00 35 1008.6
20260906032904 92 297 0.0 0.0 0.00 0.00 0.00 34 1008.5
20260906032403 92 297 0.0 0.0 0.00 0.00 0.00 34 1008.4
20260906031904 92 298 0.0 0.0 0.00 0.00 0.00 34 1008.4
20260906031404 92 297 0.0 0.0 0.00 0.00 0.00 34 1008.3
20260906030903 92 298 0.0 0.0 0.00 0.00 0.00 34 1008.3
20260906030404 92 298 0.0 0.0 0.00 0.00 0.00 33 1008.3
20260906025904 92 298 0.0 0.0 0.00 0.00 0.00 34 1008.3
20260906025404 92 298 0.0 0.0 0.00 0.00 0.00 34 1008.3
20260906024903 92 298 0.0 0.0 0.00 0.00 0.00 33 1008.2
20260906023904 93 297 0.0 0.0 0.00 0.00 0.00 33 1008.1
20260906023403 93 294 0.0 0.0 0.00 0.00 0.00 33 1008.0
20260906022904 93 253 0.0 0.0 0.00 0.00 0.00 33 1008.0
20260906021403 93 289 0.0 0.0 0.00 0.00 0.00 32 1007.9
20260906020404 94 295 0.0 0.0 0.00 0.00 0.00 32 1007.9
20260906015404 94 280 0.0 0.0 0.00 0.00 0.00 31 1008.2
20260906014404 94 291 0.0 0.0 0.00 0.00 0.00 31 1008.3
20260906013904 94 290 0.0 0.0 0.00 0.00 0.00 31 1008.3
20260906012912 95 273 0.0 0.0 0.00 0.00 0.00 31 1008.3
20260906012404 95 292 0.0 2.0 0.00 0.00 0.00 31 1008.3
20260906011914 95 306 0.0 2.0 0.00 0.00 0.00 31 1008.3
20260906011404 95 275 0.0 0.0 0.00 0.00 0.00 31 1008.2
20260906010904 95 263 0.0 0.0 0.00 0.00 0.00 30 1008.3
20260906010404 96 257 0.0 0.0 0.00 0.00 0.00 30 1008.3
20260906004903 96 249 0.0 0.0 0.00 0.00 0.00 30 1008.3
20260906004404 97 248 0.0 1.0 0.00 0.00 0.00 29 1008.2
20260906003904 97 260 0.0 6.0 0.00 0.00 0.00 29 1008.3
20260906002904 97 319 0.0 6.0 0.00 0.00 0.00 29 1008.2
20260906002404 98 262 0.0 3.0 0.00 0.00 0.00 30 1008.0
20260906001904 98 269 0.0 2.0 0.00 0.00 0.00 29 1008.0
20260906001404 98 256 0.0 1.0 0.00 0.00 0.00 29 1007.9
20260906000904 98 312 0.0 3.0 0.00 0.00 0.00 29 1007.9
20260906000404 97 282 0.0 3.0 0.00 0.00 0.00 30 1008.0
20260905235405 98 252 0.0 1.0 0.00 0.00 0.00 29 1007.9
20260905234403 98 313 0.0 2.0 0.00 0.00 0.00 29 1007.9
20260905232903 99 259 0.0 0.0 0.00 0.00 0.00 28 1008.0
20260905232404 99 256 0.0 1.0 0.00 0.00 0.00 28 1008.1
20260905231903 99 246 1.0 3.0 0.00 0.00 0.00 28 1008.0
20260905231403 99 254 0.0 0.0 0.00 0.00 0.00 29 1008.0
20260905230904 99 254 0.0 0.0 0.00 0.00 0.00 29 1008.1
20260905225904 98 234 0.0 0.0 0.00 0.00 0.00 29 1008.0
20260905225404 98 267 0.0 0.0 0.00 0.00 0.00 30 1008.0
20260905224904 98 248 0.0 0.0 0.00 0.00 0.00 30 1008.0
20260905224404 97 277 0.0 0.0 0.00 0.00 0.00 31 1008.2
20260905223904 97 286 0.0 3.0 0.00 0.00 0.00 31 1008.2
20260905223404 97 251 0.0 0.0 0.00 0.00 0.00 31 1008.3
20260905222904 97 256 0.0 0.0 0.00 0.00 0.00 31 1008.3
20260905222404 97 260 0.0 0.0 0.00 0.00 0.00 31 1008.4
20260905221903 97 265 0.0 0.0 0.00 0.00 0.00 32 1008.4
20260905221404 97 264 0.0 0.0 0.00 0.00 0.00 32 1008.6
20260905220903 97 267 0.0 0.0 0.00 0.00 0.00 32 1008.6
20260905220404 97 231 0.0 0.0 0.00 0.00 0.00 32 1008.7
20260905215904 97 253 0.0 0.0 0.00 0.00 0.00 33 1008.6
20260905215404 97 231 0.0 0.0 0.00 0.00 0.00 32 1008.6
20260905214904 97 231 0.0 0.0 0.00 0.00 0.00 32 1008.7
20260905214404 98 232 0.0 0.0 0.00 0.00 0.00 32 1008.7
20260905213904 99 326 0.0 3.0 0.00 0.00 0.00 32 1008.7
20260905213403 99 248 0.0 1.0 0.00 0.00 0.00 32 1008.7
20260905212904 99 269 0.0 0.0 0.00 0.00 0.00 31 1008.8
20260905211404 99 309 0.0 3.0 0.00 0.00 0.00 31 1009.0
20260905210903 99 301 0.0 3.0 0.00 0.00 0.00 32 1009.0
20260905205903 99 240 0.0 0.0 0.00 0.00 0.00 31 1009.1
20260905205404 99 240 0.0 1.0 0.00 0.00 0.00 32 1009.1
20260905204904 98 218 0.0 0.0 0.00 0.00 0.00 32 1009.2
20260905204403 98 217 0.0 5.0 0.00 0.00 0.00 32 1009.2
20260905203405 98 221 0.0 0.0 0.00 0.00 0.00 32 1009.4
20260905202905 98 221 0.0 0.0 0.00 0.00 0.00 32 1009.5
20260905202405 97 220 0.0 3.0 0.00 0.00 0.00 32 1009.7
20260905201905 97 259 0.0 0.0 0.00 0.00 0.00 32 1009.7
20260905201405 97 259 0.0 0.0 0.00 0.00 0.00 32 1009.8
20260905200405 97 229 0.0 0.0 0.00 0.00 0.00 33 1009.9
20260905195906 97 229 0.0 0.0 0.00 0.00 0.00 32 1009.8
20260905195405 96 229 0.0 0.0 0.00 0.00 0.00 33 1009.9
20260905194905 96 229 0.0 0.0 0.00 0.00 0.00 33 1010.0
20260905193905 97 229 0.0 0.0 0.00 0.00 0.00 32 1010.1
20260905193405 97 229 0.0 0.0 0.00 0.00 0.00 32 1010.1
20260905192906 97 229 0.0 0.0 0.00 0.00 0.00 32 1010.3
20260905192405 97 228 0.0 0.0 0.00 0.00 0.00 32 1010.3
20260905191905 97 228 0.0 0.0 0.00 0.00 0.00 32 1010.4
20260905191405 96 229 0.0 0.0 0.00 0.00 0.00 33 1010.5
20260905190905 96 229 0.0 0.0 0.00 0.00 0.00 33 1010.6
20260905190406 96 228 0.0 0.0 0.00 0.00 0.00 33 1010.7